Tracking 19246 objects as of 20-Aug-2018
HD Live streaming from Space Station
objects crossing your sky now

COSMOS 2353

Track COSMOS 2353 now!
10-day predictions
COSMOS 2353 is classified as:


NORAD ID: 25364
Int'l Code: 1998-036B
Perigee: 1,307.4 km
Apogee: 1,876.2 km
Inclination: 82.6 °
Period: 117.9 minutes
Semi major axis: 7962 km
RCS: 0.979 m2 (medium)
Launch date: June 15, 1998
Source: Commonwealth of Independent States (former USSR) (CIS)
Launch site: PLESETSK MISSILE AND SPACE COMPLEX (PKMTR)

Satellites have a single simultaneous earth-space and space-earth channel.
aabbcc
Your satellite tracking list
Your tracking list is empty




NASA's NSSDC Master Catalog

Two Line Element Set (TLE):
1 25364U 98036B   18231.44739015 +.00000027 +00000-0 +11204-3 0  9994
2 25364 082.5858 233.4616 0357150 091.7617 272.4385 12.21802410899913
Source of the keplerian elements: AFSPC